Time,TemperatureF,DewpointF,PressureIn,WindDirection,WindDirectionDegrees,WindSpeedMPH,WindSpeedGustMPH,Humidity,HourlyPrecipIn,Conditions,Clouds,dailyrainin,SoftwareType,DateUTC
2013-01-27 00:03:00,24.8,9.2,29.18,SSE,158,8.1,8.1,51,0.00,,FEW,0.00,WeatherDisplay:10.37,2013-01-27 06:03:00,
2013-01-27 00:08:00,24.8,9.2,29.18,SE,135,7.4,7.4,51,0.00,,FEW,0.00,WeatherDisplay:10.37,2013-01-27 06:08:00,
2013-01-27 00:13:00,24.8,9.2,29.18,SSE,158,5.8,5.8,51,0.00,,FEW,0.00,WeatherDisplay:10.37,2013-01-27 06:13:00,
2013-01-27 00:18:00,25.0,9.4,29.18,SE,135,9.2,9.2,51,0.00,,FEW,0.00,WeatherDisplay:10.37,2013-01-27 06:18:00,
2013-01-27 00:23:00,25.0,9.4,29.18,SSE,158,8.1,8.1,51,0.00,,FEW,0.00,WeatherDisplay:10.37,2013-01-27 06:23:00,
2013-01-27 00:28:00,25.2,9.5,29.18,SE,135,6.0,6.4,51,0.00,,FEW,0.00,WeatherDisplay:10.37,2013-01-27 06:28:00,
2013-01-27 00:33:00,25.2,9.5,29.18,SE,135,6.0,6.4,51,0.00,,FEW,0.00,WeatherDisplay:10.37,2013-01-27 06:33:00,
2013-01-27 00:38:00,25.2,9.5,29.18,SE,135,6.0,6.4,51,0.00,,FEW,0.00,WeatherDisplay:10.37,2013-01-27 06:38:00,
2013-01-27 00:43:00,25.2,9.5,29.18,SE,135,6.0,6.4,51,0.00,,FEW,0.00,WeatherDisplay:10.37,2013-01-27 06:43:00,
2013-01-27 00:48:00,25.2,9.5,29.15,SE,135,6.0,6.4,51,0.00,,FEW,0.00,WeatherDisplay:10.37,2013-01-27 06:48:00,
2013-01-27 00:53:00,25.2,9.5,29.15,SE,135,6.0,6.4,51,0.00,,FEW,0.00,WeatherDisplay:10.37,2013-01-27 06:53:00,
2013-01-27 00:58:00,25.5,9.9,29.15,SE,135,6.0,6.4,51,0.00,,FEW,0.00,WeatherDisplay:10.37,2013-01-27 06:58:00,
2013-01-27 01:03:00,25.5,9.9,29.15,SE,135,6.0,6.4,51,0.00,,FEW,0.00,WeatherDisplay:10.37,2013-01-27 07:03:00,
2013-01-27 01:08:00,25.7,10.0,29.15,SE,135,6.0,6.4,51,0.00,,FEW,0.00,WeatherDisplay:10.37,2013-01-27 07:08:00,
2013-01-27 01:13:00,25.7,10.0,29.15,SE,135,6.0,6.4,51,0.00,,FEW,0.00,WeatherDisplay:10.37,2013-01-27 07:13:00,
2013-01-27 01:18:00,25.7,10.0,29.12,SE,135,6.0,6.4,51,0.00,,FEW,0.00,WeatherDisplay:10.37,2013-01-27 07:18:00,
2013-01-27 01:23:00,25.7,10.0,29.12,SE,135,6.0,6.4,51,0.00,,FEW,0.00,WeatherDisplay:10.37,2013-01-27 07:23:00,
2013-01-27 01:28:00,25.7,10.0,29.12,SE,135,6.0,6.4,51,0.00,,FEW,0.00,WeatherDisplay:10.37,2013-01-27 07:28:00,
2013-01-27 01:33:00,25.7,10.0,29.15,SE,135,6.0,6.4,51,0.00,,FEW,0.00,WeatherDisplay:10.37,2013-01-27 07:33:00,
2013-01-27 01:38:00,25.7,10.0,29.15,SE,135,6.0,6.4,51,0.00,,FEW,0.00,WeatherDisplay:10.37,2013-01-27 07:38:00,
2013-01-27 01:43:00,25.7,10.0,29.15,SE,135,6.0,6.4,51,0.00,,FEW,0.00,WeatherDisplay:10.37,2013-01-27 07:43:00,
2013-01-27 01:48:00,25.7,10.0,29.15,SE,135,6.0,6.4,51,0.00,,FEW,0.00,WeatherDisplay:10.37,2013-01-27 07:48:00,
2013-01-27 01:53:00,25.5,9.9,29.15,SSE,158,5.8,5.8,51,0.00,,FEW,0.00,WeatherDisplay:10.37,2013-01-27 07:53:00,
2013-01-27 01:58:00,25.5,9.9,29.15,SE,135,5.8,5.8,51,0.00,,FEW,0.00,WeatherDisplay:10.37,2013-01-27 07:58:00,
2013-01-27 02:03:00,25.5,9.9,29.15,SE,135,5.9,5.9,51,0.00,,FEW,0.00,WeatherDisplay:10.37,2013-01-27 08:03:00,
2013-01-27 02:08:00,25.9,10.2,29.15,SSE,158,6.9,6.9,51,0.00,,FEW,0.00,WeatherDisplay:10.37,2013-01-27 08:08:00,
2013-01-27 02:13:00,25.9,10.2,29.15,ESE,112,7.6,7.6,51,0.00,,FEW,0.00,WeatherDisplay:10.37,2013-01-27 08:13:00,
2013-01-27 02:18:00,26.1,10.8,29.15,SSE,158,5.8,5.8,52,0.00,,FEW,0.00,WeatherDisplay:10.37,2013-01-27 08:18:00,
2013-01-27 02:23:00,26.1,10.8,29.15,SE,135,6.9,6.9,52,0.00,,FEW,0.00,WeatherDisplay:10.37,2013-01-27 08:23:00,
2013-01-27 02:28:00,26.1,10.8,29.15,SSE,158,5.8,5.8,52,0.00,,FEW,0.00,WeatherDisplay:10.37,2013-01-27 08:28:00,
2013-01-27 02:33:00,26.1,10.8,29.15,South,180,6.9,6.9,52,0.00,,FEW,0.00,WeatherDisplay:10.37,2013-01-27 08:33:00,
2013-01-27 02:38:00,26.2,11.0,29.15,SSE,158,5.8,5.8,52,0.00,,FEW,0.00,WeatherDisplay:10.37,2013-01-27 08:38:00,
2013-01-27 02:43:00,26.2,11.0,29.15,SSE,158,5.8,5.8,52,0.00,,FEW,0.00,WeatherDisplay:10.37,2013-01-27 08:43:00,
2013-01-27 02:48:00,26.2,11.0,29.15,SSE,158,5.8,5.8,52,0.00,,FEW,0.00,WeatherDisplay:10.37,2013-01-27 08:48:00,
2013-01-27 02:53:00,26.4,11.2,29.15,SE,135,4.6,4.6,52,0.00,,FEW,0.00,WeatherDisplay:10.37,2013-01-27 08:53:00,
2013-01-27 02:58:00,26.4,11.2,29.15,SSW,202,5.4,5.4,52,0.00,,FEW,0.00,WeatherDisplay:10.37,2013-01-27 08:58:00,
2013-01-27 03:03:00,26.6,11.3,29.15,SE,135,5.8,5.8,52,0.00,,FEW,0.00,WeatherDisplay:10.37,2013-01-27 09:03:00,
2013-01-27 03:08:00,26.4,11.2,29.15,SE,135,3.1,3.1,52,0.00,,FEW,0.00,WeatherDisplay:10.37,2013-01-27 09:08:00,
2013-01-27 03:13:00,26.2,11.0,29.15,ESE,112,3.5,3.5,52,0.00,,FEW,0.00,WeatherDisplay:10.37,2013-01-27 09:13:00,
2013-01-27 03:18:00,26.2,11.0,29.12,SSE,158,4.6,4.6,52,0.00,,FEW,0.00,WeatherDisplay:10.37,2013-01-27 09:18:00,
2013-01-27 03:23:00,26.6,11.3,29.12,SSE,158,5.4,5.4,52,0.00,,FEW,0.00,WeatherDisplay:10.37,2013-01-27 09:23:00,
2013-01-27 03:28:00,26.6,11.3,29.12,SE,135,5.8,5.8,52,0.00,,FEW,0.00,WeatherDisplay:10.37,2013-01-27 09:28:00,
2013-01-27 03:33:00,26.6,11.3,29.12,SSE,158,4.9,4.9,52,0.00,,FEW,0.00,WeatherDisplay:10.37,2013-01-27 09:33:00,
2013-01-27 03:38:00,26.6,11.3,29.12,SSE,158,6.9,6.9,52,0.00,,FEW,0.00,WeatherDisplay:10.37,2013-01-27 09:38:00,
2013-01-27 03:43:00,26.8,11.0,29.12,SSE,158,5.8,5.9,51,0.00,,FEW,0.00,WeatherDisplay:10.37,2013-01-27 09:43:00,
2013-01-27 03:48:00,27.0,11.2,29.12,SE,135,8.1,8.1,51,0.00,,FEW,0.00,WeatherDisplay:10.37,2013-01-27 09:48:00,
2013-01-27 03:53:00,27.0,11.2,29.12,East,90,5.8,5.8,51,0.00,,FEW,0.00,WeatherDisplay:10.37,2013-01-27 09:53:00,
2013-01-27 03:58:00,27.1,11.4,29.12,South,180,5.8,5.8,51,0.00,,FEW,0.00,WeatherDisplay:10.37,2013-01-27 09:58:00,
2013-01-27 04:03:00,27.5,11.7,29.09,South,180,5.8,5.8,51,0.00,,FEW,0.00,WeatherDisplay:10.37,2013-01-27 10:03:00,
2013-01-27 04:08:00,27.5,11.7,29.09,SE,135,7.1,7.1,51,0.00,,FEW,0.00,WeatherDisplay:10.37,2013-01-27 10:08:00,
2013-01-27 04:13:00,27.9,12.1,29.09,ESE,112,10.4,10.4,51,0.00,,FEW,0.00,WeatherDisplay:10.37,2013-01-27 10:13:00,
2013-01-27 04:18:00,28.0,12.2,29.06,SSE,158,8.1,8.1,51,0.00,,FEW,0.00,WeatherDisplay:10.37,2013-01-27 10:18:00,
2013-01-27 04:23:00,28.0,12.2,29.06,SSE,158,6.9,6.9,51,0.00,,FEW,0.00,WeatherDisplay:10.37,2013-01-27 10:23:00,
2013-01-27 04:28:00,28.0,12.2,29.06,ESE,112,10.5,10.5,51,0.00,,FEW,0.00,WeatherDisplay:10.37,2013-01-27 10:28:00,
2013-01-27 04:33:00,28.2,12.4,29.06,SSE,158,8.1,8.1,51,0.00,,FEW,0.00,WeatherDisplay:10.37,2013-01-27 10:33:00,
2013-01-27 04:38:00,28.2,12.4,29.06,SE,135,9.2,9.2,51,0.00,,FEW,0.00,WeatherDisplay:10.37,2013-01-27 10:38:00,
2013-01-27 04:43:00,28.4,12.6,29.06,SE,135,8.1,8.1,51,0.00,,FEW,0.00,WeatherDisplay:10.37,2013-01-27 10:43:00,
2013-01-27 04:48:00,28.4,12.6,29.09,ESE,112,5.8,5.8,51,0.00,,FEW,0.00,WeatherDisplay:10.37,2013-01-27 10:48:00,
2013-01-27 04:53:00,28.6,12.7,29.09,SE,135,6.9,6.9,51,0.00,,FEW,0.00,WeatherDisplay:10.37,2013-01-27 10:53:00,
2013-01-27 04:58:00,28.6,12.7,29.09,SSE,158,8.1,8.1,51,0.00,,FEW,0.00,WeatherDisplay:10.37,2013-01-27 10:58:00,
2013-01-27 05:03:00,28.6,12.7,29.12,SSE,158,6.9,6.9,51,0.00,,FEW,0.00,WeatherDisplay:10.37,2013-01-27 11:03:00,
2013-01-27 05:08:00,28.8,12.9,29.12,SE,135,8.1,8.1,51,0.00,,FEW,0.00,WeatherDisplay:10.37,2013-01-27 11:08:00,
2013-01-27 05:13:00,28.8,12.9,29.12,SSE,158,7.6,7.6,51,0.00,,FEW,0.00,WeatherDisplay:10.37,2013-01-27 11:13:00,
2013-01-27 05:18:00,28.8,12.9,29.12,SE,135,7.1,7.1,51,0.00,,FEW,0.00,WeatherDisplay:10.37,2013-01-27 11:18:00,
2013-01-27 05:24:00,28.8,12.9,29.12,SE,135,6.9,6.9,51,0.00,,FEW,0.00,WeatherDisplay:10.37,2013-01-27 11:24:00,
2013-01-27 05:29:00,28.8,12.9,29.12,SE,135,5.8,5.8,51,0.00,,FEW,0.00,WeatherDisplay:10.37,2013-01-27 11:29:00,
2013-01-27 05:34:00,28.6,12.7,29.09,SE,135,7.4,7.4,51,0.00,,FEW,0.00,WeatherDisplay:10.37,2013-01-27 11:34:00,
2013-01-27 05:39:00,28.8,12.9,29.09,SSE,158,8.1,8.1,51,0.00,,FEW,0.00,WeatherDisplay:10.37,2013-01-27 11:39:00,
2013-01-27 05:44:00,28.8,12.9,29.09,SSE,158,5.9,5.9,51,0.00,,FEW,0.00,WeatherDisplay:10.37,2013-01-27 11:44:00,
2013-01-27 05:49:00,28.8,12.9,29.09,SE,135,8.1,8.1,51,0.00,,FEW,0.00,WeatherDisplay:10.37,2013-01-27 11:49:00,
2013-01-27 05:54:00,28.9,13.1,29.09,South,180,10.4,10.4,51,0.00,,FEW,0.00,WeatherDisplay:10.37,2013-01-27 11:54:00,
2013-01-27 05:59:00,29.1,13.2,29.09,SSE,158,8.1,8.1,51,0.00,,FEW,0.00,WeatherDisplay:10.37,2013-01-27 11:59:00,
2013-01-27 06:04:00,29.3,13.4,29.09,SE,135,9.2,9.2,51,0.00,,FEW,0.00,WeatherDisplay:10.37,2013-01-27 12:04:00,
2013-01-27 06:09:00,29.5,13.6,29.09,SSE,158,10.4,10.4,51,0.00,,FEW,0.00,WeatherDisplay:10.37,2013-01-27 12:09:00,
2013-01-27 06:14:00,29.5,13.6,29.09,SSE,158,8.1,8.1,51,0.00,,FEW,0.00,WeatherDisplay:10.37,2013-01-27 12:14:00,
2013-01-27 06:19:00,29.7,13.7,29.09,SE,135,11.5,11.5,51,0.00,,FEW,0.00,WeatherDisplay:10.37,2013-01-27 12:19:00,
2013-01-27 06:24:00,29.8,13.9,29.09,SE,135,10.5,10.5,51,0.00,,FEW,0.00,WeatherDisplay:10.37,2013-01-27 12:24:00,
2013-01-27 06:29:00,30.0,14.1,29.09,ESE,112,8.1,8.1,51,0.00,,FEW,0.00,WeatherDisplay:10.37,2013-01-27 12:29:00,
2013-01-27 06:34:00,30.0,14.1,29.09,SE,135,9.2,9.2,51,0.00,,FEW,0.00,WeatherDisplay:10.37,2013-01-27 12:34:00,
2013-01-27 06:39:00,30.0,14.1,29.09,SE,135,9.7,9.7,51,0.00,,FEW,0.00,WeatherDisplay:10.37,2013-01-27 12:39:00,
2013-01-27 06:44:00,30.2,14.2,29.09,SE,135,10.4,10.4,51,0.00,,FEW,0.00,WeatherDisplay:10.37,2013-01-27 12:44:00,
2013-01-27 06:49:00,30.2,14.2,29.06,SSE,158,8.1,8.1,51,0.00,,FEW,0.00,WeatherDisplay:10.37,2013-01-27 12:49:00,
2013-01-27 06:54:00,30.2,14.2,29.06,SSE,158,9.2,9.2,51,0.00,,FEW,0.00,WeatherDisplay:10.37,2013-01-27 12:54:00,
2013-01-27 06:59:00,30.2,14.2,29.06,SSE,158,9.8,9.8,51,0.00,,FEW,0.00,WeatherDisplay:10.37,2013-01-27 12:59:00,
2013-01-27 07:04:00,30.2,14.2,29.09,SSW,202,10.4,10.4,51,0.00,,FEW,0.00,WeatherDisplay:10.37,2013-01-27 13:04:00,
2013-01-27 07:09:00,30.2,14.2,29.09,SE,135,10.4,10.4,51,0.00,,FEW,0.00,WeatherDisplay:10.37,2013-01-27 13:09:00,
2013-01-27 07:14:00,30.4,13.9,29.09,SSE,158,8.1,8.1,50,0.00,,FEW,0.00,WeatherDisplay:10.37,2013-01-27 13:14:00,
2013-01-27 07:19:00,30.4,13.9,29.09,South,180,8.1,8.1,50,0.00,,FEW,0.00,WeatherDisplay:10.37,2013-01-27 13:19:00,
2013-01-27 07:24:00,30.4,13.9,29.09,SSE,158,8.1,8.1,50,0.00,,FEW,0.00,WeatherDisplay:10.37,2013-01-27 13:24:00,
2013-01-27 07:29:00,30.6,14.1,29.09,ESE,112,10.4,10.4,50,0.00,,FEW,0.00,WeatherDisplay:10.37,2013-01-27 13:29:00,
2013-01-27 07:34:00,30.7,14.3,29.09,SSE,158,8.1,8.1,50,0.00,,FEW,0.00,WeatherDisplay:10.37,2013-01-27 13:34:00,
2013-01-27 07:39:00,30.7,14.3,29.09,SSE,158,12.7,12.7,50,0.00,,FEW,0.00,WeatherDisplay:10.37,2013-01-27 13:39:00,
2013-01-27 07:44:00,30.9,14.4,29.09,SSE,158,8.1,8.1,50,0.00,,FEW,0.00,WeatherDisplay:10.37,2013-01-27 13:44:00,
2013-01-27 07:49:00,31.1,14.6,29.06,SSE,158,11.5,11.5,50,0.00,,FEW,0.00,WeatherDisplay:10.37,2013-01-27 13:49:00,
2013-01-27 07:54:00,31.1,14.6,29.06,SE,135,10.4,10.4,50,0.00,,FEW,0.00,WeatherDisplay:10.37,2013-01-27 13:54:00,
2013-01-27 07:59:00,31.3,14.8,29.06,SE,135,10.5,10.5,50,0.00,,FEW,0.00,WeatherDisplay:10.37,2013-01-27 13:59:00,
2013-01-27 08:04:00,31.3,14.8,29.06,ESE,112,10.4,10.4,50,0.00,,FEW,0.00,WeatherDisplay:10.37,2013-01-27 14:04:00,
2013-01-27 08:09:00,31.5,14.9,29.06,ESE,112,8.1,8.1,50,0.00,,FEW,0.00,WeatherDisplay:10.37,2013-01-27 14:09:00,
2013-01-27 08:14:00,31.5,14.9,29.06,SE,135,7.1,8.1,50,0.00,,FEW,0.00,WeatherDisplay:10.37,2013-01-27 14:14:00,
2013-01-27 08:19:00,31.6,15.1,29.06,SE,135,10.9,10.9,50,0.00,,FEW,0.00,WeatherDisplay:10.37,2013-01-27 14:19:00,
2013-01-27 08:24:00,31.8,15.3,29.06,SSE,158,9.0,9.0,50,0.00,,FEW,0.00,WeatherDisplay:10.37,2013-01-27 14:24:00,
2013-01-27 08:29:00,31.8,15.3,29.06,SE,135,8.1,8.1,50,0.00,,FEW,0.00,WeatherDisplay:10.37,2013-01-27 14:29:00,
2013-01-27 08:34:00,31.8,15.3,29.03,SSE,158,8.5,8.5,50,0.00,,FEW,0.00,WeatherDisplay:10.37,2013-01-27 14:34:00,
2013-01-27 08:39:00,32.0,15.4,29.03,SSE,158,10.7,10.7,50,0.00,,FEW,0.00,WeatherDisplay:10.37,2013-01-27 14:39:00,
2013-01-27 08:44:00,32.0,15.4,29.03,SSE,158,12.7,12.7,50,0.00,,FEW,0.00,WeatherDisplay:10.37,2013-01-27 14:44:00,
2013-01-27 08:49:00,32.0,15.4,29.03,SSE,158,12.7,12.7,50,0.00,,FEW,0.00,WeatherDisplay:10.37,2013-01-27 14:49:00,
2013-01-27 08:54:00,32.0,15.4,29.03,South,180,11.5,11.5,50,0.00,,FEW,0.00,WeatherDisplay:10.37,2013-01-27 14:54:00,
2013-01-27 08:59:00,32.0,15.4,29.03,SSE,158,9.8,9.8,50,0.00,,FEW,0.00,WeatherDisplay:10.37,2013-01-27 14:59:00,
2013-01-27 09:04:00,32.0,15.4,29.03,SE,135,11.5,11.5,50,0.00,,FEW,0.00,WeatherDisplay:10.37,2013-01-27 15:04:00,
2013-01-27 09:09:00,32.2,15.6,29.03,ESE,112,8.1,8.1,50,0.00,,FEW,0.00,WeatherDisplay:10.37,2013-01-27 15:09:00,
2013-01-27 09:14:00,32.2,15.6,29.03,SSE,158,8.1,8.1,50,0.00,,FEW,0.00,WeatherDisplay:10.37,2013-01-27 15:14:00,
2013-01-27 09:19:00,32.2,15.6,29.03,SSE,158,8.1,8.1,50,0.00,,FEW,0.00,WeatherDisplay:10.37,2013-01-27 15:19:00,
2013-01-27 09:24:00,32.2,15.6,29.03,SSE,158,10.0,10.0,50,0.00,,FEW,0.00,WeatherDisplay:10.37,2013-01-27 15:24:00,
2013-01-27 09:29:00,32.4,15.8,29.03,SSE,158,10.4,10.4,50,0.00,,FEW,0.00,WeatherDisplay:10.37,2013-01-27 15:29:00,
2013-01-27 09:34:00,32.5,15.9,29.03,SSE,158,8.1,8.1,50,0.00,,FEW,0.00,WeatherDisplay:10.37,2013-01-27 15:34:00,
2013-01-27 09:39:00,32.5,15.9,29.03,SSE,158,8.1,8.1,50,0.00,,FEW,0.00,WeatherDisplay:10.37,2013-01-27 15:39:00,
2013-01-27 09:44:00,32.5,16.4,29.03,SE,135,12.7,12.7,51,0.00,,FEW,0.00,WeatherDisplay:10.37,2013-01-27 15:44:00,
2013-01-27 09:49:00,32.7,16.6,29.03,ESE,112,11.5,11.5,51,0.00,,FEW,0.00,WeatherDisplay:10.37,2013-01-27 15:49:00,
2013-01-27 09:54:00,32.7,16.6,29.03,SSE,158,8.1,8.7,51,0.00,,FEW,0.00,WeatherDisplay:10.37,2013-01-27 15:54:00,
2013-01-27 09:59:00,32.9,16.7,29.03,SE,134,7.0,0.0,51,0.00,,FEW,0.00,WeatherDisplay:10.37,2013-01-27 15:59:00,
2013-01-27 10:04:00,32.9,16.7,29.06,SE,135,6.0,0.0,51,0.00,,FEW,0.00,WeatherDisplay:10.37,2013-01-27 16:04:00,
2013-01-27 10:09:00,33.1,16.9,29.06,ESE,112,6.9,6.9,51,0.00,,FEW,0.00,WeatherDisplay:10.37,2013-01-27 16:09:00,
2013-01-27 10:14:00,33.1,16.9,29.06,SE,142,9.0,0.0,51,0.00,,FEW,0.00,WeatherDisplay:10.37,2013-01-27 16:14:00,
2013-01-27 10:19:00,33.1,16.9,29.03,SE,138,7.0,0.0,51,0.00,,FEW,0.00,WeatherDisplay:10.37,2013-01-27 16:19:00,
2013-01-27 10:24:00,33.3,17.1,29.03,ESE,112,4.6,4.6,51,0.00,,FEW,0.00,WeatherDisplay:10.37,2013-01-27 16:24:00,
2013-01-27 10:29:00,33.3,17.1,29.03,SE,135,6.0,0.0,51,0.00,,FEW,0.00,WeatherDisplay:10.37,2013-01-27 16:29:00,
2013-01-27 10:34:00,33.3,17.1,29.03,SSE,158,6.9,6.9,51,0.00,,FEW,0.00,WeatherDisplay:10.37,2013-01-27 16:34:00,
2013-01-27 10:39:00,33.3,17.1,29.03,SE,135,9.2,9.2,51,0.00,,FEW,0.00,WeatherDisplay:10.37,2013-01-27 16:39:00,
2013-01-27 10:44:00,33.3,17.5,29.03,SE,143,7.0,0.0,52,0.00,,FEW,0.00,WeatherDisplay:10.37,2013-01-27 16:44:00,
2013-01-27 10:49:00,33.4,18.1,29.03,SE,135,5.9,6.0,53,0.00,,FEW,0.00,WeatherDisplay:10.37,2013-01-27 16:49:00,
2013-01-27 10:54:00,33.4,18.6,29.03,SSE,147,6.0,0.0,54,0.00,,FEW,0.00,WeatherDisplay:10.37,2013-01-27 16:54:00,
2013-01-27 10:59:00,33.4,19.0,29.03,SE,146,5.0,0.0,55,0.00,,FEW,0.00,WeatherDisplay:10.37,2013-01-27 16:59:00,
2013-01-27 11:04:00,33.4,19.4,29.00,ESE,112,10.9,10.9,56,0.00,,FEW,0.00,WeatherDisplay:10.37,2013-01-27 17:04:00,
2013-01-27 11:09:00,33.3,20.9,29.00,SE,135,10.4,10.4,60,0.00,,FEW,0.00,WeatherDisplay:10.37,2013-01-27 17:09:00,
2013-01-27 11:14:00,33.1,21.1,29.00,SE,135,6.0,0.0,61,0.00,,FEW,0.00,WeatherDisplay:10.37,2013-01-27 17:14:00,
2013-01-27 11:19:00,33.3,21.6,29.03,ESE,112,7.6,7.6,62,0.00,,FEW,0.00,WeatherDisplay:10.37,2013-01-27 17:19:00,
2013-01-27 11:24:00,33.2,21.6,29.03,SE,143,7.0,0.0,62,0.00,,FEW,0.00,WeatherDisplay:10.37,2013-01-27 17:24:00,
2013-01-27 11:29:00,32.9,22.0,29.03,SSE,158,8.7,8.7,64,0.00,,FEW,0.00,WeatherDisplay:10.37,2013-01-27 17:29:00,
2013-01-27 11:34:00,32.5,24.5,29.03,SSE,158,13.8,13.8,72,0.00,,FEW,0.00,WeatherDisplay:10.37,2013-01-27 17:34:00,
2013-01-27 11:39:00,32.4,26.0,29.03,SE,137,9.0,0.0,77,0.00,,FEW,0.00,WeatherDisplay:10.37,2013-01-27 17:39:00,
2013-01-27 11:44:00,32.2,26.7,29.03,ESE,112,9.2,9.2,80,0.00,,FEW,0.00,WeatherDisplay:10.37,2013-01-27 17:44:00,
2013-01-27 11:49:00,32.2,27.9,29.00,ESE,112,13.8,13.8,84,0.00,,FEW,0.00,WeatherDisplay:10.37,2013-01-27 17:49:00,
2013-01-27 11:54:00,32.2,28.7,29.00,SE,138,6.0,0.0,87,0.00,,FEW,0.00,WeatherDisplay:10.37,2013-01-27 17:54:00,
2013-01-27 11:59:00,32.0,29.1,29.00,SE,135,13.8,13.8,89,0.00,,FEW,0.00,WeatherDisplay:10.37,2013-01-27 17:59:00,
2013-01-27 12:04:00,32.0,29.7,29.00,SSE,158,8.1,8.1,91,0.00,,FEW,0.00,WeatherDisplay:10.37,2013-01-27 18:04:00,
2013-01-27 12:09:00,32.0,29.9,29.00,SE,137,7.0,0.0,92,0.00,,FEW,0.00,WeatherDisplay:10.37,2013-01-27 18:09:00,
2013-01-27 12:14:00,32.0,30.5,29.00,SSE,158,8.7,8.7,94,0.00,,FEW,0.00,WeatherDisplay:10.37,2013-01-27 18:14:00,
2013-01-27 12:19:00,31.8,30.3,29.00,SE,135,4.6,4.6,94,0.00,,FEW,0.00,WeatherDisplay:10.37,2013-01-27 18:19:00,
2013-01-27 12:24:00,31.8,30.6,29.00,SE,138,6.0,0.0,95,0.00,,FEW,0.00,WeatherDisplay:10.37,2013-01-27 18:24:00,
2013-01-27 12:29:00,31.8,30.8,29.00,SE,135,8.1,8.1,96,0.00,,FEW,0.00,WeatherDisplay:10.37,2013-01-27 18:29:00,
2013-01-27 12:34:00,31.8,30.8,28.97,SE,131,6.0,0.0,96,0.00,,FEW,0.00,WeatherDisplay:10.37,2013-01-27 18:34:00,
2013-01-27 12:39:00,31.8,30.8,28.97,ESE,112,9.2,9.2,96,0.00,,FEW,0.00,WeatherDisplay:10.37,2013-01-27 18:39:00,
2013-01-27 12:44:00,31.6,30.9,28.97,ESE,112,9.2,9.2,97,0.00,,FEW,0.00,WeatherDisplay:10.37,2013-01-27 18:44:00,
2013-01-27 12:49:00,31.7,30.9,28.97,ESE,112,8.0,0.0,97,0.00,,FEW,0.00,WeatherDisplay:10.37,2013-01-27 18:49:00,
2013-01-27 12:54:00,31.8,31.1,28.97,ESE,112,4.9,4.9,97,0.00,,FEW,0.00,WeatherDisplay:10.37,2013-01-27 18:54:00,
2013-01-27 12:59:00,31.8,31.3,28.97,ESE,112,4.7,4.7,98,0.00,,FEW,0.00,WeatherDisplay:10.37,2013-01-27 18:59:00,
2013-01-27 13:04:00,31.8,31.3,28.94,ESE,112,0.0,0.0,98,0.00,,FEW,0.00,WeatherDisplay:10.37,2013-01-27 19:04:00,
2013-01-27 13:09:00,31.8,31.3,28.94,ESE,112,0.0,0.0,98,0.00,,FEW,0.00,WeatherDisplay:10.37,2013-01-27 19:09:00,
2013-01-27 13:14:00,31.8,31.1,28.94,ESE,112,0.0,0.0,97,0.00,,FEW,0.00,WeatherDisplay:10.37,2013-01-27 19:14:00,
2013-01-27 13:19:00,32.0,31.2,28.94,ESE,112,0.0,0.0,97,0.00,,FEW,0.00,WeatherDisplay:10.37,2013-01-27 19:19:00,
2013-01-27 13:24:00,32.0,31.5,28.94,ESE,112,0.0,0.0,98,0.00,,FEW,0.00,WeatherDisplay:10.37,2013-01-27 19:24:00,
2013-01-27 13:29:00,32.0,31.5,28.94,ESE,112,0.0,0.0,98,0.00,,FEW,0.00,WeatherDisplay:10.37,2013-01-27 19:29:00,
2013-01-27 13:34:00,32.0,31.5,28.97,ESE,112,0.0,0.0,98,0.00,,FEW,0.00,WeatherDisplay:10.37,2013-01-27 19:34:00,
2013-01-27 13:39:00,32.0,31.5,28.97,ESE,112,0.0,0.0,98,0.00,,FEW,0.00,WeatherDisplay:10.37,2013-01-27 19:39:00,
2013-01-27 13:44:00,32.0,31.5,28.97,ESE,112,0.0,0.0,98,0.00,,FEW,0.00,WeatherDisplay:10.37,2013-01-27 19:44:00,
2013-01-27 13:49:00,32.0,31.5,28.94,ESE,112,0.0,0.0,98,0.00,,FEW,0.00,WeatherDisplay:10.37,2013-01-27 19:49:00,
2013-01-27 13:54:00,31.8,31.3,28.94,ESE,112,0.0,0.0,98,0.00,,FEW,0.00,WeatherDisplay:10.37,2013-01-27 19:54:00,
2013-01-27 13:59:00,31.8,31.3,28.94,ESE,112,0.0,0.0,98,0.00,,FEW,0.00,WeatherDisplay:10.37,2013-01-27 19:59:00,
2013-01-27 14:04:00,31.8,31.3,28.91,ESE,112,0.0,0.0,98,0.00,,FEW,0.00,WeatherDisplay:10.37,2013-01-27 20:04:00,
2013-01-27 14:09:00,31.8,31.3,28.91,ESE,112,0.0,0.0,98,0.00,,FEW,0.00,WeatherDisplay:10.37,2013-01-27 20:09:00,
2013-01-27 14:14:00,31.8,31.3,28.91,South,191,3.0,0.0,98,0.00,,FEW,0.00,WeatherDisplay:10.37,2013-01-27 20:14:00,
2013-01-27 14:19:00,32.0,31.5,28.91,SW,225,6.0,6.0,98,0.00,,FEW,0.00,WeatherDisplay:10.37,2013-01-27 20:19:00,
2013-01-27 14:24:00,32.2,31.7,28.91,SW,225,5.0,0.0,98,0.00,,FEW,0.00,WeatherDisplay:10.37,2013-01-27 20:24:00,
2013-01-27 14:29:00,32.2,31.7,28.91,SW,225,5.0,0.0,98,0.00,,FEW,0.00,WeatherDisplay:10.37,2013-01-27 20:29:00,
2013-01-27 14:34:00,32.2,31.7,28.91,SW,225,3.5,3.5,98,0.00,,FEW,0.00,WeatherDisplay:10.37,2013-01-27 20:34:00,
2013-01-27 14:39:00,32.2,31.7,28.91,SW,225,1.6,2.0,98,0.00,,FEW,0.00,WeatherDisplay:10.37,2013-01-27 20:39:00,
2013-01-27 14:44:00,32.2,31.7,28.91,SW,225,4.6,4.6,98,0.00,,FEW,0.00,WeatherDisplay:10.37,2013-01-27 20:44:00,
2013-01-27 14:49:00,32.2,31.7,28.91,SW,225,3.6,4.3,98,0.00,,FEW,0.00,WeatherDisplay:10.37,2013-01-27 20:49:00,
2013-01-27 14:54:00,32.2,31.7,28.91,SW,225,5.0,0.0,98,0.00,,FEW,0.00,WeatherDisplay:10.37,2013-01-27 20:54:00,
2013-01-27 14:59:00,32.2,31.7,28.91,SW,225,3.5,3.5,98,0.00,,FEW,0.00,WeatherDisplay:10.37,2013-01-27 20:59:00,
2013-01-27 15:04:00,32.2,31.7,28.91,SW,225,5.0,0.0,98,0.00,,FEW,0.00,WeatherDisplay:10.37,2013-01-27 21:04:00,
2013-01-27 15:09:00,32.2,31.7,28.91,SW,225,5.0,0.0,98,0.00,,FEW,0.00,WeatherDisplay:10.37,2013-01-27 21:09:00,
2013-01-27 15:14:00,32.2,31.7,28.91,SW,225,5.0,0.0,98,0.00,,FEW,0.00,WeatherDisplay:10.37,2013-01-27 21:14:00,
2013-01-27 15:19:00,32.2,31.7,28.91,SW,225,5.0,0.0,98,0.00,,FEW,0.00,WeatherDisplay:10.37,2013-01-27 21:19:00,
2013-01-27 15:24:00,32.2,31.7,28.91,SW,225,6.0,0.0,98,0.00,,FEW,0.00,WeatherDisplay:10.37,2013-01-27 21:24:00,
2013-01-27 15:29:00,32.2,31.7,28.91,SW,225,3.0,0.0,98,0.00,,FEW,0.00,WeatherDisplay:10.37,2013-01-27 21:29:00,
2013-01-27 15:34:00,32.2,31.7,28.91,SW,225,3.0,0.0,98,0.00,,FEW,0.00,WeatherDisplay:10.37,2013-01-27 21:34:00,
2013-01-27 15:39:00,32.2,31.7,28.91,SW,225,4.6,4.6,98,0.00,,FEW,0.00,WeatherDisplay:10.37,2013-01-27 21:39:00,
2013-01-27 15:44:00,32.2,31.7,28.91,SW,225,6.2,6.2,98,0.00,,FEW,0.00,WeatherDisplay:10.37,2013-01-27 21:44:00,
2013-01-27 15:49:00,32.2,31.7,28.91,SW,225,5.0,0.0,98,0.00,,FEW,0.00,WeatherDisplay:10.37,2013-01-27 21:49:00,
2013-01-27 15:54:00,32.4,31.9,28.91,SW,225,5.8,5.8,98,0.00,,FEW,0.00,WeatherDisplay:10.37,2013-01-27 21:54:00,
2013-01-27 15:59:00,32.4,31.9,28.91,SW,225,7.8,7.8,98,0.00,,FEW,0.00,WeatherDisplay:10.37,2013-01-27 21:59:00,
2013-01-27 16:04:00,32.4,31.9,28.91,SW,225,5.0,0.0,98,0.00,,FEW,0.00,WeatherDisplay:10.37,2013-01-27 22:04:00,
2013-01-27 16:09:00,32.4,31.9,28.91,SW,225,4.6,4.6,98,0.00,,FEW,0.00,WeatherDisplay:10.37,2013-01-27 22:09:00,
2013-01-27 16:14:00,32.4,31.9,28.91,SW,225,5.8,5.8,98,0.00,,FEW,0.00,WeatherDisplay:10.37,2013-01-27 22:14:00,
2013-01-27 16:19:00,32.4,31.9,28.91,SW,225,3.0,0.0,98,0.00,,FEW,0.00,WeatherDisplay:10.37,2013-01-27 22:19:00,
2013-01-27 16:24:00,32.4,31.9,28.91,SW,225,4.6,4.6,98,0.00,,FEW,0.00,WeatherDisplay:10.37,2013-01-27 22:24:00,
2013-01-27 16:29:00,32.4,31.9,28.91,SW,225,6.9,6.9,98,0.00,,FEW,0.00,WeatherDisplay:10.37,2013-01-27 22:29:00,
2013-01-27 16:34:00,32.4,31.9,28.91,SW,225,3.0,0.0,98,0.00,,FEW,0.00,WeatherDisplay:10.37,2013-01-27 22:34:00,
2013-01-27 16:39:00,32.4,31.9,28.91,SW,225,5.8,5.8,98,0.00,,FEW,0.00,WeatherDisplay:10.37,2013-01-27 22:39:00,
2013-01-27 16:44:00,32.4,31.9,28.91,SW,225,3.0,0.0,98,0.00,,FEW,0.00,WeatherDisplay:10.37,2013-01-27 22:44:00,
2013-01-27 16:49:00,32.5,32.0,28.91,SW,225,6.0,6.0,98,0.00,,FEW,0.00,WeatherDisplay:10.37,2013-01-27 22:49:00,
2013-01-27 16:54:00,32.5,32.0,28.91,SW,225,5.0,0.0,98,0.00,,FEW,0.00,WeatherDisplay:10.37,2013-01-27 22:54:00,
2013-01-27 16:59:00,32.5,32.0,28.91,SW,225,4.6,4.6,98,0.00,,FEW,0.00,WeatherDisplay:10.37,2013-01-27 22:59:00,
2013-01-27 17:04:00,32.5,32.0,28.88,SW,225,6.9,6.9,98,0.00,,FEW,0.00,WeatherDisplay:10.37,2013-01-27 23:04:00,
2013-01-27 17:09:00,32.5,32.0,28.88,SW,225,3.5,3.5,98,0.00,,FEW,0.00,WeatherDisplay:10.37,2013-01-27 23:09:00,
2013-01-27 17:14:00,32.5,32.0,28.88,SW,225,3.0,0.0,98,0.00,,FEW,0.00,WeatherDisplay:10.37,2013-01-27 23:14:00,
2013-01-27 17:19:00,32.5,32.0,28.91,SW,225,4.6,4.6,98,0.00,,FEW,0.00,WeatherDisplay:10.37,2013-01-27 23:19:00,
2013-01-27 17:24:00,32.5,32.0,28.91,SW,225,5.8,5.8,98,0.00,,FEW,0.00,WeatherDisplay:10.37,2013-01-27 23:24:00,
2013-01-27 17:29:00,32.4,31.9,28.91,SW,225,3.0,0.0,98,0.00,,FEW,0.00,WeatherDisplay:10.37,2013-01-27 23:29:00,
2013-01-27 17:34:00,32.4,31.9,28.88,SW,225,6.9,6.9,98,0.00,,FEW,0.00,WeatherDisplay:10.37,2013-01-27 23:34:00,
2013-01-27 17:39:00,32.4,31.9,28.88,SW,225,3.0,0.0,98,0.00,,FEW,0.00,WeatherDisplay:10.37,2013-01-27 23:39:00,
2013-01-27 17:44:00,32.4,31.9,28.88,SW,225,5.0,0.0,98,0.00,,FEW,0.00,WeatherDisplay:10.37,2013-01-27 23:44:00,
2013-01-27 17:49:00,32.4,31.9,28.88,SW,225,9.2,9.2,98,0.00,,FEW,0.00,WeatherDisplay:10.37,2013-01-27 23:49:00,
2013-01-27 17:54:00,32.4,31.9,28.88,SW,225,4.6,4.6,98,0.00,,FEW,0.00,WeatherDisplay:10.37,2013-01-27 23:54:00,
2013-01-27 17:59:00,32.4,31.9,28.88,SW,225,6.0,0.0,98,0.00,,FEW,0.00,WeatherDisplay:10.37,2013-01-27 23:59:00,
2013-01-27 18:04:00,32.4,31.9,28.88,SW,225,3.0,0.0,98,0.00,,FEW,0.00,WeatherDisplay:10.37,2013-01-28 00:04:00,
2013-01-27 18:09:00,32.4,31.9,28.88,SW,225,3.0,0.0,98,0.00,,FEW,0.00,WeatherDisplay:10.37,2013-01-28 00:09:00,
2013-01-27 18:14:00,32.4,31.9,28.88,SW,225,5.0,0.0,98,0.00,,FEW,0.00,WeatherDisplay:10.37,2013-01-28 00:14:00,
2013-01-27 18:19:00,32.4,31.9,28.88,SW,225,3.5,4.5,98,0.00,,FEW,0.00,WeatherDisplay:10.37,2013-01-28 00:19:00,
2013-01-27 18:24:00,32.4,31.9,28.88,SW,225,5.0,0.0,98,0.00,,FEW,0.00,WeatherDisplay:10.37,2013-01-28 00:24:00,
2013-01-27 18:29:00,32.4,31.9,28.88,SW,225,3.5,4.5,98,0.00,,FEW,0.00,WeatherDisplay:10.37,2013-01-28 00:29:00,
2013-01-27 18:34:00,32.4,31.9,28.88,SW,225,6.9,6.9,98,0.00,,FEW,0.00,WeatherDisplay:10.37,2013-01-28 00:34:00,
2013-01-27 18:39:00,32.4,31.9,28.88,SW,225,3.0,0.0,98,0.00,,FEW,0.00,WeatherDisplay:10.37,2013-01-28 00:39:00,
2013-01-27 18:44:00,32.4,31.9,28.88,SW,225,5.4,5.4,98,0.00,,FEW,0.00,WeatherDisplay:10.37,2013-01-28 00:44:00,
2013-01-27 18:49:00,32.2,31.7,28.88,SW,225,3.0,0.0,98,0.00,,FEW,0.00,WeatherDisplay:10.37,2013-01-28 00:49:00,
2013-01-27 18:54:00,32.2,31.7,28.88,SW,225,4.6,4.6,98,0.00,,FEW,0.00,WeatherDisplay:10.37,2013-01-28 00:54:00,
2013-01-27 18:59:00,32.2,31.7,28.88,SW,225,3.5,3.5,98,0.00,,FEW,0.00,WeatherDisplay:10.37,2013-01-28 00:59:00,
2013-01-27 19:04:00,32.2,31.7,28.88,SW,225,3.0,0.0,98,0.00,,FEW,0.00,WeatherDisplay:10.37,2013-01-28 01:04:00,
2013-01-27 19:09:00,32.2,31.7,28.88,SW,225,2.9,3.1,98,0.00,,FEW,0.00,WeatherDisplay:10.37,2013-01-28 01:09:00,
2013-01-27 19:14:00,32.2,31.7,28.88,SW,225,3.8,3.8,98,0.00,,FEW,0.00,WeatherDisplay:10.37,2013-01-28 01:14:00,
2013-01-27 19:19:00,32.2,31.7,28.88,SW,225,2.0,0.0,98,0.00,,FEW,0.00,WeatherDisplay:10.37,2013-01-28 01:19:00,
2013-01-27 19:24:00,32.2,31.7,28.88,SW,225,3.5,3.5,98,0.00,,FEW,0.00,WeatherDisplay:10.37,2013-01-28 01:24:00,
2013-01-27 19:29:00,32.2,31.7,28.88,SW,225,3.3,3.3,98,0.00,,FEW,0.00,WeatherDisplay:10.37,2013-01-28 01:29:00,
2013-01-27 19:34:00,32.2,31.7,28.88,SW,225,5.0,0.0,98,0.00,,FEW,0.00,WeatherDisplay:10.37,2013-01-28 01:34:00,
2013-01-27 19:39:00,32.2,31.7,28.88,SW,225,4.6,4.6,98,0.00,,FEW,0.00,WeatherDisplay:10.37,2013-01-28 01:39:00,
2013-01-27 19:44:00,32.2,31.7,28.88,SW,225,2.0,0.0,98,0.00,,FEW,0.00,WeatherDisplay:10.37,2013-01-28 01:44:00,
2013-01-27 19:49:00,32.2,31.7,28.88,SW,225,2.0,0.0,98,0.00,,FEW,0.00,WeatherDisplay:10.37,2013-01-28 01:49:00,
2013-01-27 19:54:00,32.2,31.7,28.88,SW,225,3.5,3.5,98,0.00,,FEW,0.00,WeatherDisplay:10.37,2013-01-28 01:54:00,
2013-01-27 19:59:00,32.2,31.7,28.88,SW,225,2.0,0.0,98,0.00,,FEW,0.00,WeatherDisplay:10.37,2013-01-28 01:59:00,
2013-01-27 20:04:00,32.2,31.7,28.88,SW,225,2.3,2.3,98,0.00,,FEW,0.00,WeatherDisplay:10.37,2013-01-28 02:04:00,
2013-01-27 20:09:00,32.0,31.5,28.88,SW,225,2.3,2.3,98,0.00,,FEW,0.00,WeatherDisplay:10.37,2013-01-28 02:09:00,
2013-01-27 20:14:00,32.0,31.5,28.88,SW,225,1.0,0.0,98,0.00,,FEW,0.00,WeatherDisplay:10.37,2013-01-28 02:14:00,
2013-01-27 20:19:00,32.0,31.5,28.88,SW,225,0.0,0.0,98,0.00,,FEW,0.00,WeatherDisplay:10.37,2013-01-28 02:19:00,
2013-01-27 20:24:00,32.0,31.5,28.88,SW,225,0.0,0.0,98,0.00,,FEW,0.00,WeatherDisplay:10.37,2013-01-28 02:24:00,
2013-01-27 20:29:00,32.0,31.5,28.88,SW,225,0.0,0.0,98,0.00,,FEW,0.00,WeatherDisplay:10.37,2013-01-28 02:29:00,
2013-01-27 20:34:00,32.0,31.5,28.85,SW,225,0.0,0.0,98,0.00,,FEW,0.00,WeatherDisplay:10.37,2013-01-28 02:34:00,
2013-01-27 20:39:00,32.0,31.5,28.85,SW,225,0.0,0.0,98,0.00,,FEW,0.00,WeatherDisplay:10.37,2013-01-28 02:39:00,
2013-01-27 20:44:00,32.0,31.5,28.85,SW,225,0.0,0.0,98,0.00,,FEW,0.00,WeatherDisplay:10.37,2013-01-28 02:44:00,
2013-01-27 20:49:00,31.8,31.3,28.85,SW,225,0.0,0.0,98,0.00,,FEW,0.00,WeatherDisplay:10.37,2013-01-28 02:49:00,
2013-01-27 20:54:00,31.8,31.3,28.85,SW,225,0.0,0.0,98,0.00,,FEW,0.00,WeatherDisplay:10.37,2013-01-28 02:54:00,
2013-01-27 20:59:00,31.8,31.3,28.85,SW,225,0.0,0.0,98,0.00,,FEW,0.00,WeatherDisplay:10.37,2013-01-28 02:59:00,
2013-01-27 21:04:00,31.8,31.3,28.88,SW,225,0.0,0.0,98,0.00,,FEW,0.00,WeatherDisplay:10.37,2013-01-28 03:04:00,
2013-01-27 21:09:00,31.8,31.3,28.88,SW,225,0.0,0.0,98,0.00,,FEW,0.00,WeatherDisplay:10.37,2013-01-28 03:09:00,
2013-01-27 21:14:00,31.8,31.3,28.88,SW,225,0.0,0.0,98,0.00,,FEW,0.00,WeatherDisplay:10.37,2013-01-28 03:14:00,
2013-01-27 21:19:00,31.8,31.3,28.85,SW,225,0.0,0.0,98,0.00,,FEW,0.00,WeatherDisplay:10.37,2013-01-28 03:19:00,
2013-01-27 21:24:00,31.6,31.1,28.85,SW,225,0.0,0.0,98,0.00,,FEW,0.00,WeatherDisplay:10.37,2013-01-28 03:24:00,
2013-01-27 21:29:00,31.6,31.1,28.85,SW,225,0.0,0.0,98,0.00,,FEW,0.00,WeatherDisplay:10.37,2013-01-28 03:29:00,
2013-01-27 21:34:00,31.6,31.1,28.85,SW,225,0.0,0.0,98,0.00,,FEW,0.00,WeatherDisplay:10.37,2013-01-28 03:34:00,
2013-01-27 21:39:00,31.6,31.1,28.85,SW,225,0.0,0.0,98,0.00,,FEW,0.00,WeatherDisplay:10.37,2013-01-28 03:39:00,
2013-01-27 21:44:00,31.6,31.1,28.85,SW,225,0.0,0.0,98,0.00,,FEW,0.00,WeatherDisplay:10.37,2013-01-28 03:44:00,
2013-01-27 21:49:00,31.6,31.1,28.85,SW,225,0.0,0.0,98,0.00,,FEW,0.00,WeatherDisplay:10.37,2013-01-28 03:49:00,
2013-01-27 21:54:00,31.6,31.1,28.85,SW,225,0.0,0.0,98,0.00,,FEW,0.00,WeatherDisplay:10.37,2013-01-28 03:54:00,
2013-01-27 21:59:00,31.6,31.1,28.85,SW,225,1.1,0.0,98,0.00,,FEW,0.00,WeatherDisplay:10.37,2013-01-28 03:59:00,
2013-01-27 22:04:00,31.6,31.1,28.82,SW,225,0.0,0.0,98,0.00,,FEW,0.00,WeatherDisplay:10.37,2013-01-28 04:04:00,
2013-01-27 22:09:00,31.6,31.1,28.82,SW,225,1.6,1.6,98,0.00,,FEW,0.00,WeatherDisplay:10.37,2013-01-28 04:09:00,
2013-01-27 22:14:00,31.6,31.1,28.82,SW,225,1.6,1.6,98,0.00,,FEW,0.00,WeatherDisplay:10.37,2013-01-28 04:14:00,
2013-01-27 22:19:00,31.6,31.1,28.85,SW,225,1.0,0.0,98,0.00,,FEW,0.00,WeatherDisplay:10.37,2013-01-28 04:19:00,
2013-01-27 22:24:00,31.6,31.1,28.85,SW,225,0.0,0.0,98,0.00,,FEW,0.00,WeatherDisplay:10.37,2013-01-28 04:24:00,
2013-01-27 22:29:00,31.6,31.1,28.85,SW,225,0.0,0.0,98,0.00,,FEW,0.00,WeatherDisplay:10.37,2013-01-28 04:29:00,
2013-01-27 22:34:00,31.6,31.1,28.85,SW,225,0.0,0.0,98,0.00,,FEW,0.00,WeatherDisplay:10.37,2013-01-28 04:34:00,
2013-01-27 22:39:00,31.6,31.1,28.85,SW,225,0.0,0.0,98,0.00,,FEW,0.00,WeatherDisplay:10.37,2013-01-28 04:39:00,
2013-01-27 22:44:00,31.6,31.1,28.85,SW,225,0.0,0.0,98,0.00,,FEW,0.00,WeatherDisplay:10.37,2013-01-28 04:44:00,
2013-01-27 22:49:00,31.5,31.0,28.85,SW,225,0.0,0.0,98,0.00,,FEW,0.00,WeatherDisplay:10.37,2013-01-28 04:49:00,
2013-01-27 22:54:00,31.6,31.1,28.85,SW,225,0.0,0.0,98,0.00,,FEW,0.00,WeatherDisplay:10.37,2013-01-28 04:54:00,
2013-01-27 22:59:00,31.6,31.1,28.85,SW,225,0.0,0.0,98,0.00,,FEW,0.00,WeatherDisplay:10.37,2013-01-28 04:59:00,
2013-01-27 23:02:00,31.6,31.1,28.85,SW,225,0.0,0.0,98,0.00,,FEW,0.00,WeatherDisplay:10.37,2013-01-28 05:02:00,
2013-01-27 23:03:00,31.5,31.0,28.85,SW,225,0.0,0.0,98,0.00,,FEW,0.00,WeatherDisplay:10.37,2013-01-28 05:03:00,
2013-01-27 23:08:00,31.5,31.0,28.85,SW,225,0.0,0.0,98,0.00,,FEW,0.00,WeatherDisplay:10.37,2013-01-28 05:08:00,
2013-01-27 23:13:00,31.6,31.1,28.85,SW,225,0.0,0.0,98,0.00,,FEW,0.00,WeatherDisplay:10.37,2013-01-28 05:13:00,
2013-01-27 23:18:00,31.6,31.1,28.85,SW,225,0.0,0.0,98,0.00,,FEW,0.00,WeatherDisplay:10.37,2013-01-28 05:18:00,
2013-01-27 23:23:00,31.5,31.0,28.85,SW,225,0.0,0.0,98,0.00,,FEW,0.00,WeatherDisplay:10.37,2013-01-28 05:23:00,
2013-01-27 23:28:00,31.5,31.0,28.85,SW,225,0.0,0.0,98,0.00,,FEW,0.00,WeatherDisplay:10.37,2013-01-28 05:28:00,
2013-01-27 23:33:00,31.5,31.0,28.85,SW,225,0.0,0.0,98,0.00,,FEW,0.00,WeatherDisplay:10.37,2013-01-28 05:33:00,
2013-01-27 23:38:00,31.5,31.0,28.85,SW,225,0.0,0.0,98,0.00,,FEW,0.00,WeatherDisplay:10.37,2013-01-28 05:38:00,
2013-01-27 23:43:00,31.5,31.0,28.85,SW,225,0.0,0.0,98,0.00,,FEW,0.00,WeatherDisplay:10.37,2013-01-28 05:43:00,
2013-01-27 23:48:00,31.5,31.0,28.85,SW,225,0.0,0.0,98,0.00,,FEW,0.00,WeatherDisplay:10.37,2013-01-28 05:48:00,
2013-01-27 23:53:00,31.5,31.0,28.85,SW,225,0.0,0.0,98,0.00,,FEW,0.00,WeatherDisplay:10.37,2013-01-28 05:53:00,
2013-01-27 23:58:00,31.5,31.0,28.85,SW,225,0.0,0.0,98,0.00,,FEW,0.00,WeatherDisplay:10.37,2013-01-28 05:58:00,